Location: *
(58.4167°N, 22.5000°E)
Time: 22:32:34
(UTC+00:00)

CZ-4C R/B - Pass Details

Date: 22 September 2019
Orbit: 654 x 1348 km, 63.4° (Epoch: 15 October)

Event Time Altitude Azimuth Distance (km) Brightness Sun altitude
Rises 19:12:05 0° 294° (WNW) 3,529 6.8 -20.5°
Reaches altitude 10° 19:14:26 10° 297° (WNW) 2,681 5.9 -20.7°
Maximum altitude 19:20:49 68° 20° (NNE) 1,160 2.9 -21.4°
Enters shadow 19:24:40 30° 96° (E) 1,931 3.6 -21.8°
